THOR AGENA D R/B, 727

Orbit data source: Space-Track

THOR AGENA D R/B, 727 is space debris in LEO originally from a launch on Sat, 11 Jan 1964 UTC via a THOR SLV-2A AGENA D launch vehicle from the Air Force Western Test Range (AFWTR). Debris objects in space refer to the collection of defunct objects orbiting the Earth. Examples of debris include non-operational satellites, rocket bodies, and fragments generated from explosions, collisions, or faulty payload assembly.

Loading next visibility...
Identifier
727, 1964-001A
Orbit
LEO
Last TLE update
14 hours ago
Origin
Manufacturer
HRB-Singer
Mission
Spacecraft
Bus & Motor
AFTRACK, Unknown motor
Mass
~700 kg wet, 5 kg dry
Launch date (UTC)
1964-01-11 (61 years ago)
Launch vehicle
THOR SLV-2A AGENA D
Launch site
Air Force Western Test Range (AFWTR)
Object type
Payload
Rocket body
Debris
Shape & HBR
Cyl + 1 Nozzle, 7.08 m
Radar Cross Section
9.225 m², Large (>1 m²)

Expand to show TLE details & history

TLE from 14 hours ago
0 THOR AGENA D R/B
1 00727U 64001A   25181.82519926  .00000021  00000-0  54807-4 0  9997
2 00727  69.9071 324.6676 0012028 148.6216 211.5609 13.95732115128120
Epoch: 2025-06-30T19:48Z
TLE epoch observation values (Epoch: 2025-06-30T19:48:17.216Z)
Latitude
0.00001°
Longitude
108.46642°
Altitude
918.389 km
Speed
7.389 km/s
True Right ascension
21h 38m 40s
True Declination
0° 00' 00"
Sunlit
Object was in full shadow at epoch
Visualization orbit readout
Latitude
-35.67572°
Longitude
92.10834°
Altitude
930.2 km
Speed
7.381 km/s
Apparent Right ascension
18h 37m 47s
Apparent Declination
-81° 33' 33"
Sunlit
Object is in full shadow
Visualization observer readout
Local Sidereal Time
21:01:09
Azimuth
185.877° SSW
Elevation
-32.919°
Doppler factor
1
Orbital elements
Apogee altitude
915.427 km
Perigee altitude
897.902 km
Semi-major axis
7,284.802 km
Eccentricity
0.0012
Inclination
69.9071°
RAAN
324.6676°
Arg. of periapsis
148.6216°
True anomaly
Unknown
Mean anomaly
211.5609°
Eccentric anomaly
Unknown
Mean motion
3.49073 °/min
Orbital period
103.13 mins
BSTAR
0.000054807
Loading maneuver chart data...
Loading SW <> Apogee altitude chart data...
Loading historical data...
Loading historical data...
Loading historical data...
Loading historical data...
Loading historical data...
Loading historical data...
Loading historical data...
Other satellites on launch #1 in the year 1964 (1964-01-11 UTC)

THOR AGENA D R/B Visibility forecast

Observer location: undefined°, undefined°

Span
Click to sort rows by Start time (UTC) header in descending order
Start Az.
Max El. time (UTC)
Max El. Az.
Max El.
End time (UTC)
End Az.
8 mins2025-07-01 09:40:53.155Z144.316° SSE2025-07-01 09:44:53.155Z100.766° ESE18.928°2025-07-01 09:48:53.155Z57.396° ENE
9 mins2025-07-01 11:25:53.155Z223.29° SW2025-07-01 11:29:53.155Z292.79° NW40.743°2025-07-01 11:34:53.155Z15.133° NNE
4 mins2025-07-01 18:43:53.155Z27.394° NE2025-07-01 18:45:53.155Z49.557° ENE13.921°2025-07-01 18:47:53.155Z70.709° E
10 mins2025-07-01 20:27:53.155Z338.789° N2025-07-01 20:31:53.155Z29.889° NE44.48°2025-07-01 20:37:53.155Z152.974° SSE
|